Cloud_Cover
5 2 21 2 0 0 0 0 0 0 0 0 0 0 0 0 0 0 5 32 100 100 100 100 100 100 100 100 100 100 100 100 100 100 98 98 100 18 22 38 97 89 98 92 96 100 78 89 56
6 5 0 0 0 0 0 0 0 0 0 0 0 0 0 0 0 0 10 22 52 99 85 100 100 100 100 100 96 100 100 100 100 87 55 68 90 96 58 17 100 100 98 85 74 78 87 93 100
0 3 1 0 0 0 0 0 0 0 0 0 0 0 0 0 0 0 3 4 40 77 100 100 100 100 93 12 80 16 100 100 100 100 77 47 8 12 86 86 76 88 74 47 94 100 100 100 100
75 3 0 0 0 0 0 0 0 0 0 0 0 0 0 0 0 0 0 4 26 97 100 100 100 40 38 98 5 61 99 85 100 100 100 55 22 16 87 89 97 68 100 100 100 100 100 100 100
20 5 4 0 0 0 0 0 0 0 0 0 0 0 0 0 0 0 0 4 19 63 90 100 100 32 88 93 19 11 77 100 96 75 64 88 87 97 62 73 17 5 74 41 89 100 100 100 100
5 5 0 0 0 0 0 0 0 0 0 0 0 0 0 0 0 0 0 0 4 92 92 65 77 97 100 88 88 12 5 41 100 100 100 100 100 96 87 82 27 4 92 57 99 24 8 67 100
59 5 0 0 0 0 0 0 0 0 0 0 0 0 0 0 0 0 0 0 0 42 100 67 88 98 56 0 12 44 62 0 1 20 64 100 32 2 0 0 0 0 0 1 68 100 70 2 3
5 0 0 0 0 0 0 0 0 0 0 0 0 0 0 0 0 0 0 0 0 25 100 100 99 20 5 1 7 0 0 0 0 0 0 0 0 0 0 0 0 0 0 0 0 0 0 0 0
5 1 0 0 0 0 0 0 0 0 0 0 0 0 0 0 0 31 7 8 0 24 100 100 100 86 100 76 24 54 26 3 6 15 0 32 0 0 5 0 0 0 0 0 0 0 0 0 0
52 0 0 0 0 0 0 0 0 0 0 0 0 0 0 0 0 22 100 85 81 70 60 32 76 100 100 100 36 65 38 27 44 36 1 68 44 42 0 0 0 0 0 0 0 0 0 0 0
17 0 0 0 0 0 0 0 0 0 0 0 0 0 0 0 0 0 0 0 15 100 100 84 56 83 99 96 98 80 87 48 97 98 15 100 100 70 4 0 0 29 14 0 0 0 0 0 0
79 8 1 0 0 0 0 0 0 0 0 0 0 0 0 0 0 0 0 0 0 3 17 100 95 90 100 95 9 53 92 11 6 82 48 88 65 77 23 11 10 100 95 81 0 0 0 0 0
8 5 0 0 0 0 0 0 0 0 0 0 0 0 0 0 0 0 0 0 0 0 6 17 92 91 87 28 13 17 68 6 21 28 13 58 49 65 71 36 93 100 100 100 32 1 0 0 0
5 4 4 0 0 0 0 0 0 0 0 0 0 0 0 0 0 0 0 0 0 0 0 19 97 69 26 6 25 67 72 40 20 2 0 80 49 81 100 100 100 100 99 100 96 88 5 0 0
27 5 5 5 0 0 0 0 0 0 0 0 0 0 0 0 0 0 0 0 0 0 0 1 20 96 45 39 35 20 17 82 19 6 29 0 15 68 100 56 100 100 100 100 93 100 94 0 13
80 5 5 5 4 0 0 0 0 0 0 0 0 0 0 0 0 0 0 0 0 0 0 0 0 4 78 33 33 48 18 11 98 96 1 1 16 68 100 100 100 100 100 69 24 100 100 56 42
32 6 5 2 0 0 0 0 0 0 0 0 0 0 0 0 0 0 0 0 0 0 0 0 0 0 0 0 0 6 14 67 90 96 71 2 5 64 100 74 100 100 100 43 85 99 100 67 20
28 5 6 12 5 5 0 0 0 0 0 0 0 0 0 0 0 0 0 0 0 0 0 0 0 0 0 0 0 0 0 27 100 93 100 62 37 71 100 99 100 100 100 100 72 100 100 91 33
58 50 75 5 4 5 0 0 0 0 0 0 0 0 0 0 0 0 0 0 0 0 0 0 0 0 0 0 0 0 0 0 14 45 98 100 78 100 100 100 75 100 100 100 95 100 95 93 72
94 56 85 11 5 4 0 0 0 0 0 0 0 0 0 0 0 0 0 0 0 0 0 0 0 0 0 0 0 0 0 0 0 80 98 50 100 100 100 100 100 100 100 99 100 100 64 100 58
100 100 60 14 5 5 0 0 0 0 0 0 0 0 0 0 0 0 0 0 0 0 0 0 0 0 0 0 0 0 0 0 4 73 100 100 100 100 100 100 100 100 100 100 100 100 99 100 92
100 100 78 5 5 5 4 4 0 0 0 0 0 0 0 0 0 0 0 0 0 0 0 0 0 0 0 0 0 0 0 0 0 1 57 100 100 100 100 100 100 100 100 100 100 100 100 100 89
100 100 17 7 5 5 2 0 1 0 0 0 0 0 0 0 0 0 0 0 0 0 0 0 0 0 0 0 0 0 0 0 0 3 55 92 100 100 100 100 100 100 100 100 100 100 100 100 100
100 91 58 8 5 2 0 0 5 4 2 1 3 0 0 0 0 0 0 0 0 0 0 0 0 0 0 0 0 0 0 0 0 5 93 53 97 100 100 100 100 100 100 100 100 100 100 100 100
100 100 98 12 5 0 0 0 5 24 5 5 5 5 4 3 0 3 0 0 0 0 0 0 0 0 0 0 0 0 0 0 0 0 50 44 99 100 100 100 100 100 100 93 100 100 100 100 100
100 98 27 5 4 4 0 1 5 9 8 5 5 5 6 5 6 56 52 5 5 1 0 0 0 0 0 0 0 0 0 0 0 0 4 42 99 100 100 100 100 100 100 100 100 100 100 100 100
99 79 96 17 5 0 0 1 5 90 100 6 5 6 5 5 31 80 98 5 5 5 2 0 0 0 0 0 0 0 0 0 0 0 0 36 70 96 100 100 100 100 100 100 100 100 100 100 100
100 100 84 45 14 10 5 5 3 29 19 94 16 0 5 24 86 100 100 97 6 10 5 0 0 0 5 5 0 3 3 3 5 5 5 23 53 10 18 16 61 55 100 100 100 100 100 100 100
100 100 100 100 100 62 5 3 88 100 100 100 99 6 5 5 6 61 6 5 5 2 4 0 0 0 5 5 5 4 4 5 5 5 5 5 7 5 54 4 99 50 86 100 96 100 100 100 100
100 100 100 100 100 100 100 5 100 100 100 100 100 70 5 5 0 0 2 2 0 0 0 0 0 0 0 0 0 5 5 5 5 3 0 2 5 0 0 92 6 99 93 46 80 100 100 100 100